Weather History for Poplar Bluff, MO

Change the Weather History Date:

Sunday, April 7, 2013

  Actual Average Record
Temperature  
Mean Temperature 65 °F -  
Max Temperature 75 °F 66 °F 87 °F (1959)
Min Temperature 57 °F 42 °F 23 °F (1939)
Growing Degree Days 15 (Base 50)    
Moisture  
Dew Point 53 °F    
Average Humidity 66    
Maximum Humidity 75    
Minimum Humidity 55    
Precipitation  
Precipitation 0.00 in - - ()
Sea Level Pressure  
Sea Level Pressure 29.91 in    
Wind  
Wind Speed 9 mph (SSW)    
Max Wind Speed 18 mph    
Max Gust Speed 24 mph    
Visibility 10 miles    
Events      
Averages and records for this station are not official NWS values.
T = Trace of Precipitation, MM = Missing Value Source: NWS Daily Summary

Daily Weather History Graph

Daily Weather History Graph

Search for Another Location

Airport:

Trip Planner

Search our weather history database for the weather conditions in past years. The results will help you decide how hot, cold, wet, or windy it might be!

Date:

Astronomy

Apr. 07, 2013 Rise Set
Actual Time 6:38 AM CDT 7:29 PM CDT
Civil Twilight 6:11 AM CDT 7:55 PM CDT
Nautical Twilight 5:40 AM CDT 8:26 PM CDT
Astronomical Twilight 5:08 AM CDT 8:58 PM CDT
Moon 4:51 AM CDT (4/7) 5:04 PM CDT (4/7)
Length of Visible Light 13h 43m
Length of Day
12h 50m
Waning Crescent, 8% of the Moon is Illuminated
Apr 7
Waning Crescent
Apr 10
New
Apr 18
First Quarter
Apr 25
Full
May 2
Last Quarter

Hourly Weather History & Observations

Time (CDT) Temp. Dew Point Humidity Pressure Visibility Wind Dir Wind Speed Gust Speed Precip Events Conditions
12:53 AM 57.9 °F 46.0 °F 65% 29.90 in 10.0 mi SSW 4.6 mph - N/A   Mostly Cloudy
1:53 AM 57.9 °F 46.9 °F 67% 29.90 in 10.0 mi SSW 5.8 mph - N/A   Overcast
2:53 AM 60.1 °F 48.0 °F 64% 29.89 in 10.0 mi SW 6.9 mph - N/A   Overcast
3:53 AM 59.0 °F 48.9 °F 69% 29.89 in 10.0 mi SSW 6.9 mph - N/A   Overcast
4:53 AM 60.1 °F 50.0 °F 69% 29.90 in 10.0 mi SSW 9.2 mph - N/A   Overcast
5:53 AM 60.1 °F 50.0 °F 69% 29.91 in 10.0 mi SSW 9.2 mph - N/A   Overcast
6:53 AM 60.1 °F 51.1 °F 72% 29.92 in 10.0 mi SSW 8.1 mph - N/A   Overcast
7:53 AM 61.0 °F 52.0 °F 72% 29.94 in 10.0 mi SSW 8.1 mph - N/A   Overcast
8:53 AM 63.0 °F 53.1 °F 70% 29.95 in 10.0 mi SSW 13.8 mph - N/A   Overcast
9:53 AM 64.9 °F 53.1 °F 65% 29.95 in 10.0 mi SSW 13.8 mph - N/A   Overcast
10:53 AM 66.9 °F 54.0 °F 63% 29.96 in 10.0 mi SSW 15.0 mph - N/A   Overcast
11:53 AM 70.0 °F 55.0 °F 59% 29.95 in 10.0 mi South 15.0 mph - N/A   Clear
12:53 PM 72.0 °F 57.0 °F 59% 29.94 in 10.0 mi SSW 12.7 mph - N/A   Clear
1:53 PM 73.9 °F 57.0 °F 55% 29.92 in 10.0 mi SSW 11.5 mph - N/A   Clear
2:53 PM 73.0 °F 55.9 °F 55% 29.90 in 10.0 mi SSW 12.7 mph - N/A   Mostly Cloudy
3:53 PM 73.9 °F 57.9 °F 57% 29.88 in 10.0 mi South 16.1 mph 21.9 mph N/A   Scattered Clouds
4:53 PM 73.0 °F 57.9 °F 59% 29.88 in 10.0 mi South 17.3 mph 23.0 mph N/A   Clear
5:53 PM 70.0 °F 57.0 °F 63% 29.88 in 10.0 mi South 18.4 mph 24.2 mph N/A   Partly Cloudy
6:53 PM 69.1 °F 57.0 °F 65% 29.89 in 10.0 mi South 12.7 mph - N/A   Mostly Cloudy
7:53 PM 66.0 °F 55.9 °F 70% 29.88 in 10.0 mi South 10.4 mph - N/A   Partly Cloudy
8:53 PM 64.0 °F 55.0 °F 73% 29.91 in 10.0 mi South 6.9 mph - N/A   Clear
9:53 PM 64.0 °F 54.0 °F 70% 29.91 in 10.0 mi South 8.1 mph - N/A   Clear
10:53 PM 61.0 °F 53.1 °F 75% 29.90 in 10.0 mi South 4.6 mph - N/A   Clear
11:53 PM 62.1 °F 53.1 °F 72% 29.88 in 10.0 mi South 6.9 mph - N/A   Partly Cloudy